| time (UTC) | temp F | wind direction | speed knots | gust knots | rain 1hr in | rain 24hr in | rain mn in | humidity % | barometer mb |
| 20260505041553 | 45 | 0 | 0.0 | 1.7 | 0.00 | 0.35 | 0.00 | 97 | 1010.2 |
| 20260505040044 | 45 | 0 | 0.0 | 0.9 | 0.00 | 0.35 | 0.00 | 97 | 1010.2 |
| 20260505034546 | 45 | 0 | 0.0 | 0.9 | 0.00 | 0.35 | 0.00 | 97 | 1010.2 |
| 20260505033047 | 45 | 0 | 0.0 | 0.0 | 0.00 | 0.35 | 0.00 | 97 | 1010.3 |
| 20260505031542 | 46 | 0 | 0.0 | 0.0 | 0.00 | 0.35 | 0.00 | 96 | 1010.4 |
| 20260505030048 | 46 | 0 | 0.0 | 0.0 | 0.00 | 0.35 | 0.00 | 96 | 1010.5 |
| 20260505024541 | 46 | 0 | 0.0 | 0.9 | 0.00 | 0.35 | 0.00 | 96 | 1010.4 |
| 20260505023045 | 46 | 0 | 0.0 | 0.9 | 0.00 | 0.35 | 0.00 | 96 | 1010.4 |
| 20260505021545 | 46 | 0 | 0.0 | 0.9 | 0.00 | 0.35 | 0.00 | 96 | 1010.5 |
| 20260505020055 | 47 | 0 | 0.0 | 0.9 | 0.00 | 0.35 | 0.00 | 96 | 1010.5 |
| 20260505014544 | 47 | 292 | 0.0 | 0.9 | 0.00 | 0.35 | 0.00 | 96 | 1010.5 |
| 20260505013047 | 47 | 0 | 0.0 | 0.9 | 0.00 | 0.35 | 0.00 | 96 | 1010.6 |
| 20260505011552 | 47 | 0 | 0.0 | 0.0 | 0.00 | 0.35 | 0.00 | 96 | 1010.7 |
| 20260505010050 | 48 | 0 | 0.0 | 0.9 | 0.00 | 0.35 | 0.00 | 96 | 1010.8 |
| 20260505004548 | 48 | 0 | 0.0 | 0.9 | 0.00 | 0.34 | 0.00 | 95 | 1010.7 |
| 20260505003043 | 48 | 0 | 0.0 | 1.7 | 0.00 | 0.34 | 0.00 | 95 | 1010.8 |
| 20260505001550 | 49 | 0 | 0.0 | 0.0 | 0.00 | 0.34 | 0.00 | 95 | 1010.8 |
| 20260505000044 | 49 | 0 | 0.0 | 0.9 | 0.00 | 0.34 | 0.00 | 95 | 1010.8 |
| 20260504234543 | 49 | 0 | 0.0 | 0.0 | 0.00 | 0.34 | 0.00 | 95 | 1010.8 |
| 20260504233043 | 50 | 0 | 0.0 | 0.0 | 0.00 | 0.34 | 0.00 | 95 | 1010.8 |
| 20260504231541 | 50 | 0 | 0.0 | 0.0 | 0.00 | 0.34 | 0.00 | 95 | 1010.7 |
| 20260504230047 | 51 | 0 | 0.0 | 0.9 | 0.00 | 0.34 | 0.00 | 94 | 1010.6 |
| 20260504224549 | 51 | 0 | 0.0 | 0.0 | 0.00 | 0.34 | 0.00 | 94 | 1010.5 |
| 20260504223051 | 52 | 0 | 0.0 | 0.9 | 0.00 | 0.34 | 0.00 | 93 | 1010.3 |
| 20260504221545 | 52 | 93 | 1.7 | 3.5 | 0.00 | 0.34 | 0.00 | 93 | 1010.2 |
| 20260504220110 | 53 | 0 | 0.0 | 0.9 | 0.00 | 0.34 | 0.00 | 93 | 1010.2 |
| 20260504214552 | 54 | 91 | 0.9 | 2.6 | 0.00 | 0.34 | 0.34 | 93 | 1010.2 |
| 20260504213052 | 54 | 291 | 0.0 | 0.9 | 0.00 | 0.34 | 0.34 | 92 | 1010.2 |
| 20260504211554 | 55 | 0 | 0.0 | 3.5 | 0.00 | 0.34 | 0.34 | 91 | 1010.6 |
| 20260504210051 | 55 | 0 | 0.9 | 4.3 | 0.00 | 0.34 | 0.34 | 88 | 1010.9 |
| 20260504204549 | 55 | 101 | 0.9 | 7.0 | 0.03 | 0.34 | 0.34 | 87 | 1011.1 |
| 20260504203049 | 56 | 0 | 0.9 | 11.3 | 0.03 | 0.34 | 0.34 | 85 | 1011.2 |
| 20260504201543 | 57 | 4 | 0.9 | 12.2 | 0.03 | 0.34 | 0.34 | 86 | 1011.2 |
| 20260504200055 | 58 | 0 | 0.9 | 7.0 | 0.01 | 0.33 | 0.33 | 90 | 1010.6 |
| 20260504194545 | 59 | 196 | 0.0 | 1.7 | 0.00 | 0.31 | 0.31 | 92 | 1010.3 |
| 20260504193047 | 59 | 0 | 0.0 | 0.9 | 0.00 | 0.31 | 0.31 | 92 | 1010.0 |
| 20260504191554 | 59 | 140 | 0.0 | 2.6 | 0.00 | 0.31 | 0.31 | 91 | 1009.9 |
| 20260504190059 | 59 | 159 | 0.0 | 1.7 | 0.00 | 0.31 | 0.31 | 91 | 1010.0 |
| 20260504184609 | 59 | 164 | 0.9 | 3.5 | 0.00 | 0.31 | 0.31 | 91 | 1009.8 |
| 20260504183052 | 59 | 227 | 0.0 | 2.6 | 0.00 | 0.31 | 0.31 | 90 | 1009.4 |
| 20260504181548 | 59 | 0 | 0.0 | 3.5 | 0.00 | 0.31 | 0.31 | 90 | 1009.2 |
| 20260504180049 | 60 | 0 | 0.9 | 2.6 | 0.00 | 0.31 | 0.31 | 89 | 1009.2 |
| 20260504174547 | 60 | 0 | 0.0 | 2.6 | 0.00 | 0.31 | 0.31 | 89 | 1009.1 |
| 20260504173052 | 60 | 204 | 1.7 | 5.2 | 0.00 | 0.31 | 0.31 | 88 | 1009.4 |
| 20260504171549 | 60 | 151 | 1.7 | 4.3 | 0.00 | 0.31 | 0.31 | 88 | 1009.5 |
| 20260504081542 | 66 | 272 | 0.9 | 3.5 | 0.00 | 0.00 | 0.00 | 68 | 1011.0 |
| 20260504044548 | 55 | 0 | 0.0 | 0.9 | 0.00 | 0.00 | 0.00 | 91 | 1011.5 |
| 20260504043042 | 55 | 0 | 0.0 | 0.9 | 0.00 | 0.00 | 0.00 | 90 | 1011.5 |